TimeEST,TemperatureF,Dew PointF,Humidity,Sea Level PressureIn,VisibilityMPH,Wind Direction,Wind SpeedMPH,Gust SpeedMPH,PrecipitationIn,Events,Conditions,WindDirDegrees,DateUTC
12:54 AM,36.0,25.0,64,30.44,10.0,SW,9.2,-,N/A,,Clear,230,2013-01-10 05:54:00
1:54 AM,35.1,25.0,67,30.46,10.0,West,9.2,-,N/A,,Clear,260,2013-01-10 06:54:00
2:54 AM,34.0,25.0,70,30.48,10.0,WSW,6.9,-,N/A,,Clear,250,2013-01-10 07:54:00
3:54 AM,33.1,25.0,72,30.48,10.0,West,5.8,-,N/A,,Clear,280,2013-01-10 08:54:00
4:54 AM,30.9,24.1,76,30.49,10.0,West,4.6,-,N/A,,Clear,260,2013-01-10 09:54:00
5:54 AM,30.9,25.0,79,30.53,10.0,West,4.6,-,N/A,,Clear,260,2013-01-10 10:54:00
6:54 AM,28.0,24.1,85,30.56,10.0,WSW,4.6,-,N/A,,Clear,240,2013-01-10 11:54:00
7:54 AM,28.0,25.0,88,30.59,10.0,West,5.8,-,N/A,,Clear,280,2013-01-10 12:54:00
8:54 AM,27.0,24.1,89,30.61,9.0,Calm,Calm,-,N/A,,Clear,0,2013-01-10 13:54:00
9:54 AM,30.9,26.1,82,30.62,10.0,Calm,Calm,-,N/A,,Clear,0,2013-01-10 14:54:00
10:54 AM,35.1,26.1,70,30.61,10.0,North,3.5,-,N/A,,Clear,350,2013-01-10 15:54:00
11:54 AM,36.0,26.1,67,30.58,10.0,Calm,Calm,-,N/A,,Clear,0,2013-01-10 16:54:00
12:54 PM,37.9,25.0,60,30.55,10.0,Calm,Calm,-,N/A,,Clear,0,2013-01-10 17:54:00
1:54 PM,41.0,25.0,53,30.54,10.0,Calm,Calm,-,N/A,,Clear,0,2013-01-10 18:54:00
2:54 PM,39.0,25.0,57,30.54,10.0,South,3.5,-,N/A,,Clear,190,2013-01-10 19:54:00
3:54 PM,37.9,25.0,60,30.54,10.0,SSW,4.6,-,N/A,,Clear,210,2013-01-10 20:54:00
4:54 PM,37.9,25.0,60,30.51,10.0,East,3.5,-,N/A,,Clear,80,2013-01-10 21:54:00
5:54 PM,35.1,25.0,67,30.53,10.0,Calm,Calm,-,N/A,,Clear,0,2013-01-10 22:54:00
6:54 PM,32.0,25.0,75,30.53,10.0,North,4.6,-,N/A,,Clear,360,2013-01-10 23:54:00
7:54 PM,30.9,25.0,79,30.53,10.0,NNE,4.6,-,N/A,,Clear,20,2013-01-11 00:54:00
8:54 PM,32.0,25.0,75,30.53,10.0,NNE,4.6,-,N/A,,Clear,30,2013-01-11 01:54:00
9:54 PM,30.0,26.1,85,30.51,10.0,NNE,6.9,-,N/A,,Partly Cloudy,20,2013-01-11 02:54:00
10:54 PM,30.9,25.0,79,30.46,10.0,NNE,8.1,-,N/A,,Clear,30,2013-01-11 03:54:00
11:54 PM,33.1,25.0,72,30.44,10.0,NE,8.1,-,N/A,,Partly Cloudy,50,2013-01-11 04:54:00